• In Czech Republic
  • List of Countries
  • For 7 days
  • Water Temperature
  • Satellite Maps
  • Weather Map
  • Weather Widgets
  • user-avatar
    Login

    Hourly Weather Moluprei

    Today, 14 December, Thursday

    Time Temperature Precipitation Wind Pressure Humidity
    00:00 +27°C° 0 mm 1 mps 757 mmHg 79%
    01:00 +27°C° 0 mm 1 mps 757 mmHg 80%
    02:00 +27°C° 0 mm 1 mps 757 mmHg 82%
    03:00 +26°C° 0 mm 1 mps 757 mmHg 84%
    04:00 +26°C° 0 mm 1 mps 757 mmHg 85%
    05:00 +26°C° 0 mm 1 mps 757 mmHg 86%
    06:00 +26°C° 0 mm 1 mps 757 mmHg 86%
    07:00 +27°C° 0 mm 1 mps 758 mmHg 84%
    08:00 +28°C° 0.2 mm 1 mps 758 mmHg 78%
    09:00 +30°C° 0.2 mm 1 mps 758 mmHg 72%
    10:00 +32°C° 0.2 mm 1 mps 758 mmHg 65%
    11:00 +32°C° 0.5 mm 1 mps 758 mmHg 63%
    12:00 +33°C° 0.5 mm 1 mps 757 mmHg 62%
    13:00 +33°C° 0.5 mm 1 mps 757 mmHg 60%
    14:00 +33°C° 0.3 mm 1 mps 757 mmHg 61%
    15:00 +32°C° 0.3 mm 1 mps 756 mmHg 62%
    16:00 +32°C° 0.3 mm 1 mps 756 mmHg 62%
    17:00 +31°C° 0.2 mm 1 mps 756 mmHg 67%
    18:00 +30°C° 0.2 mm 1 mps 756 mmHg 71%
    19:00 +28°C° 0.2 mm 1 mps 757 mmHg 76%
    20:00 +28°C° 0.1 mm 1 mps 757 mmHg 77%
    21:00 +28°C° 0.1 mm 1 mps 757 mmHg 78%
    22:00 +25°C° 0.1 mm 0 mps 758 mmHg 78%
    23:00 +25°C° 0 mm 0 mps 758 mmHg 80%

    Tomorrow, 15 December, Friday

    Time Temperature Precipitation Wind Pressure Humidity
    00:00 +25°C° 0 mm 0 mps 758 mmHg 81%
    01:00 +25°C° 0 mm 0 mps 757 mmHg 82%
    02:00 +24°C° 0 mm 0 mps 757 mmHg 83%
    03:00 +24°C° 0 mm 0 mps 757 mmHg 84%
    04:00 +24°C° 0 mm 0 mps 757 mmHg 85%
    05:00 +24°C° 0 mm 0 mps 757 mmHg 85%
    06:00 +26°C° 0 mm 1 mps 758 mmHg 86%
    07:00 +26°C° 0 mm 1 mps 758 mmHg 86%
    08:00 +28°C° 0 mm 1 mps 758 mmHg 79%
    09:00 +29°C° 0 mm 2 mps 759 mmHg 73%
    10:00 +31°C° 0 mm 2 mps 759 mmHg 66%
    11:00 +32°C° 0 mm 2 mps 758 mmHg 62%
    12:00 +34°C° 0 mm 2 mps 758 mmHg 59%
    13:00 +35°C° 0 mm 2 mps 757 mmHg 55%
    14:00 +34°C° 0 mm 2 mps 757 mmHg 56%
    15:00 +34°C° 0 mm 2 mps 757 mmHg 57%
    16:00 +34°C° 0 mm 2 mps 756 mmHg 58%
    17:00 +32°C° 0 mm 2 mps 757 mmHg 63%
    18:00 +30°C° 0 mm 2 mps 757 mmHg 68%
    19:00 +29°C° 0 mm 1 mps 758 mmHg 72%
    20:00 +28°C° 0 mm 1 mps 758 mmHg 73%
    21:00 +28°C° 0 mm 1 mps 759 mmHg 74%
    22:00 +27°C° 0 mm 1 mps 759 mmHg 75%
    23:00 +27°C° 0 mm 1 mps 759 mmHg 76%

    Day after tomorrow, 16 December, Saturday

    Time Temperature Precipitation Wind Pressure Humidity
    00:00 +27°C° 0 mm 1 mps 759 mmHg 77%
    01:00 +27°C° 0 mm 1 mps 759 mmHg 77%
    02:00 +26°C° 0 mm 1 mps 759 mmHg 79%
    03:00 +26°C° 0 mm 2 mps 758 mmHg 80%
    04:00 +25°C° 0 mm 2 mps 758 mmHg 82%
    05:00 +25°C° 0 mm 2 mps 759 mmHg 83%
    06:00 +25°C° 0 mm 2 mps 759 mmHg 84%
    07:00 +25°C° 0 mm 2 mps 759 mmHg 85%
    08:00 +26°C° 0 mm 2 mps 760 mmHg 78%
    09:00 +28°C° 0 mm 2 mps 760 mmHg 72%
    10:00 +30°C° 0 mm 3 mps 761 mmHg 65%
    11:00 +31°C° 0 mm 3 mps 760 mmHg 61%
    12:00 +32°C° 0 mm 2 mps 759 mmHg 58%
    13:00 +34°C° 0 mm 2 mps 759 mmHg 54%
    14:00 +34°C° 0.1 mm 2 mps 758 mmHg 56%
    15:00 +32°C° 0.1 mm 2 mps 758 mmHg 57%
    16:00 +32°C° 0.1 mm 2 mps 757 mmHg 58%
    17:00 +31°C° 0 mm 2 mps 758 mmHg 61%
    18:00 +30°C° 0 mm 2 mps 758 mmHg 63%
    19:00 +29°C° 0 mm 1 mps 759 mmHg 66%
    20:00 +29°C° 0.1 mm 2 mps 759 mmHg 68%
    21:00 +28°C° 0.1 mm 3 mps 760 mmHg 69%
    22:00 +27°C° 0.1 mm 4 mps 761 mmHg 71%
    23:00 +27°C° 0.1 mm 4 mps 761 mmHg 72%

    17 December, Sunday

    Time Temperature Precipitation Wind Pressure Humidity
    00:00 +26°C° 0.1 mm 4 mps 761 mmHg 74%
    01:00 +25°C° 0.1 mm 4 mps 761 mmHg 75%
    02:00 +25°C° 0.1 mm 3 mps 760 mmHg 75%
    03:00 +25°C° 0.1 mm 3 mps 760 mmHg 75%
    04:00 +25°C° 0.1 mm 3 mps 760 mmHg 74%
    05:00 +24°C° 0.1 mm 3 mps 761 mmHg 76%
    06:00 +24°C° 0.1 mm 3 mps 761 mmHg 77%
    07:00 +24°C° 0.1 mm 3 mps 762 mmHg 79%
    08:00 +25°C° 0 mm 3 mps 762 mmHg 74%
    09:00 +26°C° 0 mm 4 mps 763 mmHg 68%
    10:00 +28°C° 0 mm 4 mps 763 mmHg 63%
    11:00 +29°C° 0 mm 4 mps 762 mmHg 60%
    12:00 +30°C° 0 mm 4 mps 761 mmHg 56%
    13:00 +32°C° 0 mm 4 mps 761 mmHg 53%
    14:00 +32°C° 0 mm 4 mps 760 mmHg 53%
    15:00 +30°C° 0 mm 4 mps 760 mmHg 53%
    16:00 +30°C° 0 mm 4 mps 759 mmHg 54%
    17:00 +29°C° 0 mm 4 mps 760 mmHg 56%
    18:00 +27°C° 0 mm 4 mps 760 mmHg 59%
    19:00 +26°C° 0 mm 4 mps 761 mmHg 61%
    20:00 +25°C° 0 mm 4 mps 761 mmHg 61%
    21:00 +23°C° 0 mm 5 mps 762 mmHg 61%
    22:00 +23°C° 0 mm 5 mps 762 mmHg 62%
    23:00 +22°C° 0 mm 5 mps 762 mmHg 62%

    18 December, Monday

    Time Temperature Precipitation Wind Pressure Humidity
    00:00 +21°C° 0 mm 4 mps 762 mmHg 63%
    01:00 +21°C° 0 mm 4 mps 762 mmHg 63%
    02:00 +20°C° 0 mm 4 mps 762 mmHg 65%
    03:00 +20°C° 0 mm 3 mps 761 mmHg 66%
    04:00 +19°C° 0 mm 3 mps 761 mmHg 68%
    05:00 +19°C° 0 mm 3 mps 762 mmHg 70%
    06:00 +19°C° 0 mm 3 mps 762 mmHg 73%
    07:00 +19°C° 0 mm 3 mps 763 mmHg 75%
    08:00 +20°C° 0 mm 3 mps 763 mmHg 70%
    09:00 +22°C° 0 mm 4 mps 763 mmHg 65%
    10:00 +25°C° 0 mm 4 mps 764 mmHg 61%
    11:00 +26°C° 0 mm 4 mps 763 mmHg 57%
    12:00 +28°C° 0 mm 4 mps 762 mmHg 53%
    13:00 +29°C° 0 mm 4 mps 761 mmHg 50%
    14:00 +29°C° 0 mm 4 mps 761 mmHg 50%
    15:00 +29°C° 0 mm 4 mps 760 mmHg 50%
    16:00 +29°C° 0 mm 4 mps 760 mmHg 50%
    17:00 +28°C° 0 mm 3 mps 760 mmHg 55%
    18:00 +26°C° 0 mm 3 mps 761 mmHg 59%
    19:00 +25°C° 0 mm 3 mps 761 mmHg 64%
    20:00 +23°C° 0 mm 4 mps 762 mmHg 64%
    21:00 +23°C° 0 mm 4 mps 762 mmHg 64%
    22:00 +22°C° 0 mm 5 mps 762 mmHg 64%
    23:00 +22°C° 0 mm 4 mps 762 mmHg 65%

    19 December, Tuesday

    Time Temperature Precipitation Wind Pressure Humidity
    00:00 +21°C° 0 mm 4 mps 762 mmHg 67%
    01:00 +20°C° 0 mm 4 mps 762 mmHg 68%
    02:00 +20°C° 0 mm 4 mps 762 mmHg 69%
    03:00 +20°C° 0 mm 4 mps 762 mmHg 69%
    04:00 +19°C° 0 mm 4 mps 762 mmHg 70%
    05:00 +19°C° 0 mm 4 mps 762 mmHg 71%
    06:00 +19°C° 0 mm 4 mps 763 mmHg 71%
    07:00 +19°C° 0 mm 4 mps 763 mmHg 72%
    08:00 +20°C° 0 mm 4 mps 763 mmHg 68%
    09:00 +22°C° 0 mm 5 mps 763 mmHg 63%
    10:00 +25°C° 0 mm 5 mps 764 mmHg 58%
    11:00 +26°C° 0 mm 5 mps 763 mmHg 55%
    12:00 +27°C° 0 mm 5 mps 762 mmHg 53%
    13:00 +28°C° 0 mm 5 mps 761 mmHg 50%
    14:00 +28°C° 0 mm 5 mps 760 mmHg 50%
    15:00 +28°C° 0 mm 5 mps 760 mmHg 51%
    16:00 +29°C° 0 mm 5 mps 759 mmHg 51%
    17:00 +27°C° 0 mm 4 mps 760 mmHg 54%
    18:00 +26°C° 0 mm 4 mps 761 mmHg 56%
    19:00 +23°C° 0 mm 4 mps 761 mmHg 59%
    20:00 +23°C° 0 mm 4 mps 762 mmHg 59%
    21:00 +22°C° 0 mm 5 mps 762 mmHg 58%
    22:00 +21°C° 0 mm 5 mps 763 mmHg 58%
    23:00 +20°C° 0 mm 5 mps 762 mmHg 59%
    Show more